loading
|
Showing default

OV3-3, 2389

Orbit data source: Space-Track

OV3-3, 2389 is a payload satellite owned by USAF OAR (US) in LEO that was launched on Thu, 04 Aug 1966 UTC via an SCOUT B launch vehicle from the Air Force Western Test Range (AFWTR). Payloads include a variety of satellites, spacecraft, and rockets equipped with specific instruments for various scientific and technological missions. These include communications satellites like Starlink; space stations such as the ISS; scientific satellites like the Hubble; Earth observation satellites from companies like Planet Labs, Umbra, and HawkEye 360; GPS; miniature CubeSats for education and research; and military/defense satellites.

Loading next visibility...
Next conjunction unknown
Loading greatness...
OV3-3 details
Identifier
2389, 1966-070A
Orbit
LEO
Last TLE update11 hours ago
Origin
Flag of USUSAF OAR (US)
ManufacturerSpace General
MissionCivil Science
Bus & MotorOV3, Unknown motor
Mass77 kg wet, 77 kg dry
Launch date (UTC)
1966-08-04 (58 years ago)
Launch vehicle
SCOUT B
Launch site
Air Force Western Test Range (AFWTR)
Object type
Payload
Rocket body
Debris
Shape & HBROct Cyl + 2 Rod, 1.5 m
Radar Cross Section0.548 m², Medium (>0.1 m² and < 1m²)

Expand to show TLE details & history

TLE from 11 hours ago
0 OV3-3
1 02389U 66070A   24285.56185558  .00029958  00000-0  14822-2 0  9997
2 02389  81.3335 144.6848 1098231 288.0908  60.3738 13.24999473517013
Epoch: 2024-10-11T13:29Z
Definitive object data (Epoch: 2024-10-11T13:29:04.322Z)
Latitude-0.00003°
Longitude-78.21349°
Altitude833.192 km
Speed7.6 km/s
True Right ascension09h 38m 44s
True Declination0° 00' 00"
Sunlit
Object was in daylight at TLE epoch
Predictive object data (real-time)
Latitude71.95505°
Longitude-50.85828°
Altitude1,844.242 km
Speed6.654 km/s
Apparent Right ascension08h 33m 24s
Apparent Declination30° 08' 09"
Sunlit
Object is in daylight
Predictive observer data (real-time)
Local Sidereal Time19:09:01
Azimuth340.974° N
Elevation-17.26°
Doppler factor1
Orbital elements
Apogee1,991.101 km
Perigee334.737 km
Semi-major axis7,541.056 km
Eccentricity0.1098231
Inclination81.3335°
RAAN144.6848°
Arg. of periapsis288.0908°
True anomaly72.02581°
Mean anomaly60.3738°
Eccentric anomaly66.12789°
Mean motion3.31432 °/min
BSTAR0.0014822
Period108.62 mins
No data available
No data available
Other satellites on launch #70 in the year 1966 (1966-08-04 UTC)

OV3-3 Visibility forecast

Observer location: 39.9160978°, -105.1181434

Span
Click to sort rows by Start time (UTC) header in descending order
Start Az.
Max El. time (UTC)
Max El. Az.
Max El.
End time (UTC)
End Az.
17 mins2024-10-12 00:58:07.120Z7.513° NNE2024-10-12 01:07:07.120Z62.761° ENE27.457°2024-10-12 01:15:07.120Z119.144° SE
19 mins2024-10-12 02:48:07.120Z347.695° N2024-10-12 02:58:07.120Z267.759° W44.315°2024-10-12 03:07:07.120Z181.9° SSW
12 mins2024-10-12 04:40:07.120Z319.702° NNW2024-10-12 04:46:07.120Z284.763° WNW18.309°2024-10-12 04:52:07.120Z247.512° W
15 mins2024-10-12 14:58:07.120Z160.141° S2024-10-12 15:03:07.120Z97.175° ESE39.878°2024-10-12 15:13:07.120Z15.82° NNE
14 mins2024-10-12 16:48:07.120Z239.429° WSW2024-10-12 16:54:07.120Z299.284° NW29.153°2024-10-12 17:02:07.120Z354.558° N
12 mins2024-10-13 00:33:07.120Z16.075° NNE2024-10-13 00:40:07.120Z59.298° ENE22.696°2024-10-13 00:45:07.120Z95.005° ESE